False Pass, AK

7:39 AM HDT on October 22, 2017 (GMT -0900)
False Pass

Weather History for PAKF - October, 2012

Change the Weather History Date:

Sunday, October 7, 2012

  Actual Average (PACD) Record (PACD)
Temperature  
Mean Temperature 50 °F -  
Max Temperature 48 °F 47 °F 60 °F (2013)
Min Temperature 48 °F 37 °F 27 °F (1982)
Degree Days  
Heating Degree Days 15    
Moisture  
Dew Point 49 °F    
Average Humidity 92    
Maximum Humidity 100    
Minimum Humidity 88    
Precipitation  
Precipitation 4.46 in - - ()
Sea Level Pressure  
Sea Level Pressure 29.96 in    
Wind  
Wind Speed - (North)    
Max Wind Speed -    
Max Gust Speed -    
Visibility 3 miles    
Events Rain    
Averages and records for this station are not official NWS values.
T = Trace of Precipitation, MM = Missing Value Source: NWS Daily Summary

Daily Weather History Graph

Daily Weather History Graph

Search for Another Location

Airport or City:

Trip Planner

Search our weather history database for the weather conditions in past years. The results will help you decide how hot, cold, wet, or windy it might be!

Date:

Astronomy

Oct. 07, 2012 Rise Set
Actual Time 8:08 AM HDT 7:12 PM HDT
Civil Twilight 7:32 AM HDT 7:48 PM HDT
Nautical Twilight 6:50 AM HDT 8:30 PM HDT
Astronomical Twilight 6:08 AM HDT 9:12 PM HDT
Moon 11:58 PM HDT (10/7) 3:34 PM HDT (10/7)
Length of Visible Light 12h 15m
Length of Day
11h 03m
Waning Gibbous, 54% of the Moon is Illuminated
Oct 7
Waning Gibbous
Oct 7
Last Quarter
Oct 15
New
Oct 21
First Quarter
Oct 29
Full

Hourly Weather History & Observations

Time (HDT) Temp. Dew Point Humidity Pressure Visibility Wind Dir Wind Speed Gust Speed Precip Events Conditions
12:01 AM 50.0 °F 48.0 °F 93% 30.03 in 6.0 mi North - - 0.06 in Rain Light Rain
1:01 AM 50.0 °F 48.2 °F 94% 29.75 in 3.0 mi North - - 0.03 in Rain Light Rain
1:51 AM 50.0 °F 48.9 °F 96% 30.03 in 3.0 mi North - - 0.11 in Rain Light Rain
2:01 AM 50.0 °F 48.9 °F 96% 30.03 in 4.0 mi North - - 0.02 in Rain Light Rain
2:39 AM 51.8 °F 50.0 °F 94% 29.75 in 4.0 mi North - - 0.05 in Rain Light Rain
3:01 AM 51.1 °F 50.0 °F 96% 30.03 in 4.0 mi North - - 0.09 in Rain Light Rain
3:27 AM 51.8 °F 48.2 °F 88% 29.75 in 3.0 mi North - - 0.06 in Rain Light Rain
4:01 AM 51.1 °F 48.9 °F 92% 30.04 in 4.0 mi North - - 0.17 in Rain Rain
5:01 AM 52.0 °F 48.9 °F 89% 30.03 in 5.0 mi North - - 0.18 in Rain Rain
5:52 AM 51.8 °F 48.2 °F 88% 29.77 in 5.0 mi North - - 0.19 in Rain Rain
6:01 AM 52.0 °F 50.0 °F 93% 30.05 in 5.0 mi North - - 0.23 in Rain Rain
7:01 AM 52.0 °F 50.0 °F 93% 30.05 in 5.0 mi North - - 0.19 in Rain Rain
8:01 AM 52.0 °F 50.0 °F 93% 30.07 in 4.0 mi North - - 0.39 in Rain Heavy Rain
8:33 AM 51.8 °F 50.0 °F 94% 29.79 in 2.0 mi North - - 0.18 in Rain Heavy Rain
8:44 AM 51.8 °F 50.0 °F 94% 29.79 in 4.0 mi North - - 0.25 in Rain Rain
8:58 AM 51.8 °F 50.0 °F 94% 29.79 in 1.8 mi North - - 0.27 in Rain Light Rain
9:01 AM 52.0 °F 50.0 °F 93% 30.08 in 1.8 mi North - - 0.28 in Rain Rain
9:08 AM 51.8 °F 50.0 °F 94% 29.79 in 2.5 mi North - - 0.02 in Rain Rain
9:17 AM 51.8 °F 50.0 °F 94% 29.80 in 1.8 mi North - - 0.04 in Rain Light Rain
9:46 AM 51.8 °F 50.0 °F 94% 29.80 in 2.5 mi North - - 0.17 in Rain Rain
10:01 AM 52.0 °F 48.9 °F 89% 30.09 in 2.5 mi North - - 0.31 in Rain Heavy Rain
10:36 AM 51.8 °F 48.2 °F 88% 29.82 in 2.5 mi North - - 0.26 in Rain Rain
11:01 AM 51.1 °F 48.9 °F 92% 30.11 in 2.0 mi North - - 0.40 in Rain Rain
11:57 AM 51.8 °F 48.2 °F 88% 29.85 in 3.0 mi North - - 0.48 in Rain Rain
12:01 PM 51.1 °F 48.9 °F 92% 30.13 in 3.0 mi North - - 0.52 in Rain Heavy Rain
12:13 PM 51.8 °F 48.2 °F 88% 29.85 in 2.5 mi North - - 0.10 in Rain Heavy Rain
12:27 PM 51.8 °F 48.2 °F 88% 29.85 in 3.0 mi North - - 0.18 in Rain Rain
12:46 PM 51.8 °F 48.2 °F 88% 29.86 in 2.5 mi North - - 0.26 in Rain Rain
1:01 PM 51.1 °F 48.9 °F 92% 30.14 in 2.0 mi North - - 0.32 in Rain Light Rain
1:11 PM 51.8 °F 48.2 °F 88% 29.86 in 1.8 mi North - - 0.03 in Rain Rain
1:22 PM 51.8 °F 48.2 °F 88% 29.85 in 2.5 mi North - - 0.11 in Rain Heavy Rain
1:29 PM 51.8 °F 48.2 °F 88% 29.85 in 2.5 mi North - - 0.15 in Rain Rain
1:36 PM 51.8 °F 48.2 °F 88% 29.85 in 3.0 mi North - - 0.17 in Rain Rain
1:56 PM 51.8 °F 48.2 °F 88% 29.86 in 2.5 mi North - - 0.29 in Rain Rain
1:57 PM 51.8 °F 48.2 °F 88% 29.86 in 3.0 mi North - - 0.30 in Rain Rain
2:01 PM 51.1 °F 48.9 °F 92% 30.14 in 3.0 mi North - - 0.31 in Rain Rain
2:54 PM 51.8 °F 48.2 °F 88% 29.87 in 2.5 mi North - - 0.20 in Rain Rain
3:17 PM 51.8 °F 48.2 °F 88% 29.87 in 4.0 mi North - - 0.03 in Rain Light Rain
4:01 PM 51.1 °F 48.9 °F 92% 30.14 in 4.0 mi North - - 0.08 in Rain Light Rain
5:01 PM 51.1 °F 48.9 °F 92% 30.15 in 5.0 mi North - - 0.10 in Rain Rain
6:01 PM 51.1 °F 48.9 °F 92% 30.17 in 5.0 mi North - - 0.14 in Rain Rain
7:01 PM 50.0 °F 48.2 °F 94% 29.91 in 2.0 mi North - - 0.16 in Rain Light Rain
7:34 PM 50.0 °F 48.2 °F 94% 29.92 in 3.0 mi North - - 0.26 in Rain Rain
8:01 PM 50.0 °F 48.2 °F 94% 29.93 in 4.0 mi North - - 0.03 in Rain Rain
8:19 PM 50.0 °F 48.9 °F 96% 30.22 in 4.0 mi North - - 0.12 in Rain Heavy Rain
8:58 PM 50.0 °F 48.2 °F 94% 29.95 in 4.0 mi North - - 0.19 in Rain Rain
9:01 PM 50.0 °F 48.9 °F 96% 30.24 in 4.0 mi North - - 0.20 in Rain Rain
9:18 PM 50.0 °F 48.2 °F 94% 29.96 in 4.0 mi North - - 0.07 in Rain Rain
9:30 PM 50.0 °F 48.2 °F 94% 29.97 in 3.0 mi North - - 0.12 in Rain Rain
10:01 PM 48.2 °F 48.2 °F 100% 29.99 in 2.5 mi North - - 0.23 in Rain Rain
11:01 PM 48.9 °F 48.0 °F 97% 30.29 in 2.5 mi North - - 0.30 in Rain Light Rain
11:18 PM 48.2 °F 48.2 °F 100% 30.01 in 2.5 mi North - - 0.02 in Rain Light Rain
11:44 PM 48.2 °F 48.2 °F 100% 30.02 in 3.0 mi North - - 0.04 in Rain Light Rain